Els Cortals - Les Guilleries





Hora UTC 13:15
Temperatura 11.7 ºC
Humitat 56.0 %
Pressió 1017.1 hPa
Pluja 0.0 mm
Velocitat vent 12.9 km/h
Direcció vent WSW
Radiació solar 513.0 W/m²

Dades diàries 2021-01-17



Hora UTC (hivern +1h; estiu +2h)
Temperatura (ºC) Humitat (%) Pressió (hPa) Velocitat vent (km/h) Precipitació (mm) Radiació solar (W/m²)
Hora UTC Aire Humitat Pressió Vel. Dir. Vel. Max Dir. Intent. màx 5 min. Rad. Sol.
00:05 5.6 64.0 1020.4 12.9 SW 12.9 0.0 0.0
00:10 5.7 64.0 1020.3 9.7 SW 25.7 0.0 0.0
00:15 5.7 65.0 1020.5 8.0 WSW 24.1 0.0 0.0
00:20 5.7 64.0 1020.5 14.5 WSW 22.5 0.0 0.0
00:25 5.7 64.0 1020.4 20.9 W 24.1 0.0 0.0
00:30 5.7 64.0 1020.3 16.1 W 25.7 0.0 0.0
00:35 5.7 64.0 1020.1 16.1 WSW 25.7 0.0 0.0
00:40 5.7 64.0 1020.1 9.7 SW 25.7 0.0 0.0
00:45 5.7 65.0 1020.2 12.9 W 24.1 0.0 0.0
00:50 5.5 66.0 1020.1 12.9 WSW 25.7 0.0 0.0
00:55 5.3 67.0 1019.9 6.4 SW 25.7 0.0 0.0
01:00 5.1 67.0 1019.9 9.7 NW 19.3 0.0 0.0
01:05 5.1 68.0 1019.9 16.1 WNW 22.5 0.0 0.0
01:10 5.1 68.0 1019.8 0.0 W 22.5 0.0 0.0
01:15 5.1 68.0 1019.8 8.0 W 16.1 0.0 0.0
01:20 5.2 68.0 1019.8 12.9 SW 22.5 0.0 0.0
01:25 5.1 68.0 1019.6 14.5 WSW 22.5 0.0 0.0
01:30 4.9 68.0 1019.6 9.7 SW 22.5 0.0 0.0
01:35 4.8 69.0 1019.6 8.0 SW 20.9 0.0 0.0
01:40 4.7 69.0 1019.5 12.9 WSW 20.9 0.0 0.0
01:45 4.5 69.0 1019.5 11.3 SW 19.3 0.0 0.0
01:50 4.3 70.0 1019.6 11.3 WSW 32.2 0.0 0.0
01:55 4.2 71.0 1019.5 6.4 WSW 32.2 0.0 0.0
02:00 4.1 71.0 1019.5 14.5 SW 24.1 0.0 0.0
02:05 4.0 71.0 1019.4 8.0 SW 22.5 0.0 0.0
02:10 3.9 72.0 1019.4 12.9 W 24.1 0.0 0.0
02:15 3.9 72.0 1019.4 16.1 WSW 24.1 0.0 0.0
02:20 3.9 72.0 1019.3 6.4 WSW 22.5 0.0 0.0
02:25 3.9 72.0 1019.4 8.0 W 29.0 0.0 0.0
02:30 3.9 72.0 1019.3 25.7 WSW 32.2 0.0 0.0
02:35 3.9 72.0 1019.4 16.1 W 32.2 0.0 0.0
02:40 3.9 72.0 1019.3 8.0 WSW 25.7 0.0 0.0
02:45 3.9 72.0 1019.3 11.3 W 29.0 0.0 0.0
02:50 4.0 72.0 1019.3 11.3 SW 29.0 0.0 0.0
02:55 4.1 71.0 1019.2 19.3 SW 25.7 0.0 0.0
03:00 4.3 70.0 1019.2 11.3 SW 35.4 0.0 0.0
03:05 4.6 68.0 1019.2 17.7 WSW 32.2 0.0 0.0
03:10 4.9 67.0 1019.2 14.5 SW 33.8 0.0 0.0
03:15 5.3 67.0 1019.2 3.2 W 33.8 0.0 0.0
03:20 5.4 65.0 1019.1 22.5 SSW 25.7 0.0 0.0
03:25 5.4 64.0 1019.1 6.4 SW 32.2 0.0 0.0
03:30 5.4 64.0 1019.1 19.3 W 32.2 0.0 0.0
03:35 5.4 64.0 1019.1 9.7 NW 25.7 0.0 0.0
03:40 5.3 64.0 1019.1 11.3 WSW 25.7 0.0 0.0
03:45 5.2 64.0 1018.9 20.9 W 24.1 0.0 0.0
03:50 5.2 64.0 1018.7 16.1 W 24.1 0.0 0.0
03:55 5.3 64.0 1018.9 12.9 WSW 24.1 0.0 0.0
04:00 5.4 64.0 1018.9 8.0 SW 24.1 0.0 0.0
04:05 5.4 64.0 1018.7 11.3 SW 22.5 0.0 0.0
04:10 5.3 65.0 1018.7 14.5 WSW 22.5 0.0 0.0
04:15 5.2 65.0 1018.8 9.7 WSW 22.5 0.0 0.0
04:20 5.2 65.0 1018.8 6.4 WSW 22.5 0.0 0.0
04:25 5.1 65.0 1018.7 8.0 WSW 24.1 0.0 0.0
04:30 5.0 65.0 1018.6 11.3 WSW 24.1 0.0 0.0
04:35 5.0 65.0 1018.6 11.3 WSW 22.5 0.0 0.0
04:40 5.1 65.0 1018.4 11.3 WSW 29.0 0.0 0.0
04:45 5.1 65.0 1018.6 11.3 SSW 29.0 0.0 0.0
04:50 5.1 65.0 1018.3 14.5 W 29.0 0.0 0.0
04:55 5.1 64.0 1018.4 8.0 WSW 25.7 0.0 0.0
05:00 5.1 65.0 1018.3 12.9 WSW 30.6 0.0 0.0
05:05 5.2 65.0 1018.2 4.8 WNW 30.6 0.0 0.0
05:10 5.2 65.0 1018.3 3.2 WSW 30.6 0.0 0.0
05:15 5.1 65.0 1018.0 9.7 SW 30.6 0.0 0.0
05:20 5.2 65.0 1018.0 12.9 WSW 29.0 0.0 0.0
05:25 5.2 65.0 1018.0 24.1 SW 29.0 0.0 0.0
05:30 5.3 64.0 1018.0 8.0 NW 32.2 0.0 0.0
05:35 5.3 64.0 1018.1 9.7 WSW 32.2 0.0 0.0
05:40 5.3 64.0 1018.1 9.7 SW 24.1 0.0 0.0
05:45 5.3 65.0 1018.2 12.9 WSW 24.1 0.0 0.0
05:50 5.3 65.0 1018.3 8.0 SW 20.9 0.0 0.0
05:55 5.2 65.0 1018.3 12.9 SW 24.1 0.0 0.0
06:00 5.1 66.0 1018.2 9.7 SW 20.9 0.0 0.0
06:05 5.1 66.0 1018.4 9.7 WSW 20.9 0.0 0.0
06:10 5.2 66.0 1018.4 8.0 SSW 24.1 0.0 0.0
06:15 5.3 66.0 1018.4 9.7 WSW 25.7 0.0 0.0
06:20 5.5 66.0 1018.4 8.0 SW 25.7 0.0 0.0
06:25 5.6 66.0 1018.4 14.5 SW 25.7 0.0 0.0
06:30 5.6 65.0 1018.3 12.9 WNW 29.0 0.0 0.0
06:35 5.6 65.0 1018.4 12.9 WSW 29.0 0.0 0.0
06:40 5.6 65.0 1018.5 11.3 WNW 19.3 0.0 0.0
06:45 5.4 65.0 1018.5 9.7 SW 17.7 0.0 0.0
06:50 5.3 65.0 1018.4 6.4 WSW 19.3 0.0 0.0
06:55 5.2 66.0 1018.5 14.5 W 24.1 0.0 0.0
07:00 5.2 67.0 1018.3 9.7 W 24.1 0.0 0.0
07:05 5.3 67.0 1018.4 6.4 WSW 24.1 0.0 0.0
07:10 5.6 67.0 1018.5 3.2 NW 24.1 0.0 0.0
07:15 5.7 67.0 1018.4 3.2 WNW 20.9 0.0 0.0
07:20 5.8 65.0 1018.3 16.1 WSW 20.9 0.0 0.0
07:25 5.9 65.0 1018.3 8.0 W 20.9 0.0 9.0
07:30 5.9 66.0 1018.2 3.2 W 20.9 0.0 14.0
07:35 6.0 66.0 1018.1 8.0 WSW 19.3 0.0 12.0
07:40 6.3 66.0 1018.0 0.0 W 24.1 0.0 19.0
07:45 6.6 66.0 1018.0 8.0 SW 22.5 0.0 23.0
07:50 6.8 65.0 1018.0 16.1 W 25.7 0.0 28.0
07:55 6.9 64.0 1018.2 12.9 W 25.7 0.0 37.0
08:00 7.0 64.0 1018.1 9.7 WSW 25.7 0.0 49.0
08:05 7.1 64.0 1018.2 12.9 SW 30.6 0.0 63.0
08:10 7.3 64.0 1018.1 14.5 W 30.6 0.0 128.0
08:15 7.6 64.0 1018.2 14.5 WSW 20.9 0.0 211.0
08:20 7.9 63.0 1018.3 8.0 SW 20.9 0.0 220.0
08:25 8.2 61.0 1018.3 16.1 W 22.5 0.0 292.0
08:30 8.4 62.0 1018.2 3.2 NW 22.5 0.0 295.0
08:35 8.7 62.0 1018.4 3.2 N 22.5 0.0 309.0
08:40 9.1 61.0 1018.5 1.6 S 14.5 0.0 343.0
08:45 9.3 61.0 1018.6 3.2 E 14.5 0.0 341.0
08:50 9.4 61.0 1018.8 3.2 NNE 9.7 0.0 345.0
08:55 9.6 58.0 1018.7 3.2 S 14.5 0.0 371.0
09:00 9.6 58.0 1018.7 8.0 W 16.1 0.0 304.0
09:05 9.4 58.0 1018.8 11.3 WSW 16.1 0.0 176.0
09:10 9.1 59.0 1018.8 1.6 SSE 11.3 0.0 285.0
09:15 8.8 60.0 1018.8 1.6 WSW 14.5 0.0 146.0
09:20 8.5 61.0 1018.7 0.0 W 14.5 0.0 141.0
09:25 8.3 61.0 1018.7 8.0 WSW 11.3 0.0 128.0
09:30 8.0 62.0 1018.6 8.0 WSW 17.7 0.0 109.0
09:35 7.8 62.0 1018.6 8.0 WSW 14.5 0.0 123.0
09:40 7.7 64.0 1018.7 0.0 W 12.9 0.0 206.0
09:45 7.7 64.0 1018.7 6.4 WSW 12.9 0.0 246.0
09:50 7.9 64.0 1018.6 3.2 SW 20.9 0.0 543.0
09:55 8.3 63.0 1018.6 11.3 WSW 24.1 0.0 443.0
10:00 8.7 63.0 1018.8 8.0 NW 19.3 0.0 506.0
10:05 9.2 62.0 1018.7 11.3 W 24.1 0.0 485.0
10:10 9.6 60.0 1018.6 12.9 SSW 24.1 0.0 490.0
10:15 10.1 60.0 1018.6 11.3 SW 19.3 0.0 499.0
10:20 10.3 59.0 1018.6 19.3 WSW 20.9 0.0 508.0
10:25 10.7 58.0 1018.6 8.0 WSW 20.9 0.0 485.0
10:30 10.9 57.0 1018.7 4.8 SW 16.1 0.0 508.0
10:35 11.1 56.0 1018.8 9.7 SSW 17.7 0.0 515.0
10:40 11.0 57.0 1018.8 6.4 SW 20.9 0.0 536.0
10:45 11.0 58.0 1018.7 6.4 SW 20.9 0.0 531.0
10:50 11.1 58.0 1018.6 6.4 SSW 25.7 0.0 485.0
10:55 11.3 58.0 1018.5 11.3 WSW 22.5 0.0 469.0
11:00 11.4 58.0 1018.4 4.8 W 22.5 0.0 487.0
11:05 11.5 58.0 1018.3 8.0 WSW 22.5 0.0 489.0
11:10 11.6 57.0 1018.2 6.4 WNW 22.5 0.0 520.0
11:15 11.6 57.0 1018.1 9.7 WSW 22.5 0.0 448.0
11:20 11.6 58.0 1018.1 1.6 SSW 20.9 0.0 598.0
11:25 11.7 58.0 1018.0 11.3 SW 22.5 0.0 526.0
11:30 11.8 57.0 1017.9 12.9 SSW 25.7 0.0 587.0
11:35 11.7 57.0 1018.0 9.7 NNW 25.7 0.0 599.0
11:40 11.8 57.0 1018.1 12.9 W 25.7 0.0 613.0
11:45 11.8 57.0 1017.7 12.9 WSW 25.7 0.0 582.0
11:50 11.8 57.0 1017.6 8.0 W 19.3 0.0 573.0
11:55 11.8 56.0 1017.6 12.9 SW 20.9 0.0 570.0
12:00 11.8 56.0 1017.4 3.2 WSW 22.5 0.0 580.0
12:05 11.7 57.0 1017.5 6.4 W 22.5 0.0 555.0
12:10 11.8 57.0 1017.4 14.5 SW 17.7 0.0 566.0
12:15 11.7 57.0 1017.4 12.9 W 19.3 0.0 578.0
12:20 11.7 56.0 1017.2 11.3 WSW 19.3 0.0 568.0
12:25 11.8 57.0 1017.2 9.7 SW 20.9 0.0 594.0
12:30 11.7 57.0 1017.0 6.4 WSW 20.9 0.0 563.0
12:35 11.7 56.0 1017.0 12.9 SW 19.3 0.0 589.0
12:40 11.5 56.0 1017.0 6.4 SSW 19.3 0.0 571.0
12:45 11.4 57.0 1017.1 1.6 W 19.3 0.0 534.0
12:50 11.4 56.0 1017.1 3.2 WSW 22.5 0.0 547.0
12:55 11.6 56.0 1017.1 8.0 SW 22.5 0.0 533.0
13:00 11.6 56.0 1017.1 1.6 SW 19.3 0.0 526.0
13:05 11.6 57.0 1017.1 8.0 WSW 17.7 0.0 515.0
13:10 11.7 56.0 1017.0 9.7 WSW 17.7 0.0 517.0
13:15 11.7 56.0 1017.1 12.9 WSW 22.5 0.0 513.0
Màxima 11.8 72.0 1020.5 25.7 WSW 35.4 0.0 613.0
Mínima 3.7 56.0 1017.0
Total 0.0